Welcome to Northern Hawkes Bay. New Zealand.
PWS Header
      nz Flag



Hit Counter


W3C Valid W3C Valid logo


    Wairoa

Select any of the Stations below to visit their websites.










Historic Data from Weather Underground
Select the location of interest below. Wairoa is the default. Please have patience, this Data is slow to load in.
Northern Hawkes Bay Historical Data
 
Daily Summary for December 13, 2017 Units:  Metric    English   Both
« Previous Day
Next Day »
Daily Weekly Monthly Yearly Custom
  Current: High: Low: Average:
Temperature: 17.3 °C 19.5 °C 16.3 °C 17.3 °C
Dew Point: 15.7 °C 16.1 °C 14.7 °C 15.1 °C
Humidity: 90% 93% 74% 87%
Wind Speed: 0.0km/h 0.0km/h 0.0km/h 0km/h
Wind Gust: 0.0km/h 1.1km/h - -
WindCalm - - North
Pressure: 1007.7 hPa 1009.7 hPa 1007.3 hPa -
Precipitation: 0.0 mm      
Historical Graphs
 
 
Tabular Data for December 13, 2017
Time Temperature Dew Point Pressure Wind Wind Speed Wind Gust Humidity Rainfall Rate (Hourly) solar
00:01 19.5 °C 14.8 °C 1009.7 hPa Calm     74% 0.0 mm 0 W/m2
00:06 19.5 °C 14.9 °C 1009.4 hPa Calm     75% 0.0 mm 0 W/m2
00:11 19.5 °C 15.4 °C 1009.4 hPa Calm     77% 0.0 mm 0 W/m2
00:16 19.5 °C 15.6 °C 1009.7 hPa Calm     78% 0.0 mm 0 W/m2
00:21 19.4 °C 15.7 °C 1009.4 hPa Calm     79% 0.0 mm 0 W/m2
00:26 19.3 °C 15.6 °C 1009.4 hPa Calm     79% 0.0 mm 0 W/m2
00:31 19.2 °C 15.3 °C 1009.4 hPa Calm     78% 0.0 mm 0 W/m2
00:36 19.2 °C 15.7 °C 1009.4 hPa Calm     80% 0.0 mm 0 W/m2
00:41 19.2 °C 16.1 °C 1009.4 hPa Calm     82% 0.0 mm 0 W/m2
00:46 19.1 °C 15.8 °C 1009.4 hPa Calm     81% 0.0 mm 0 W/m2
00:51 19.0 °C 15.7 °C 1009.4 hPa Calm     81% 0.0 mm 0 W/m2
00:56 18.8 °C 15.7 °C 1009.4 hPa Calm     82% 0.0 mm 0 W/m2
01:01 18.7 °C 15.4 °C 1009.0 hPa Calm     81% 0.0 mm 0 W/m2
01:06 18.6 °C 15.1 °C 1009.4 hPa Calm     80% 0.0 mm 0 W/m2
01:11 18.5 °C 15.0 °C 1009.0 hPa Calm     80% 0.0 mm 0 W/m2
01:21 18.3 °C 15.0 °C 1009.0 hPa Calm     81% 0.0 mm 0 W/m2
01:26 18.3 °C 15.2 °C 1008.7 hPa Calm     82% 0.0 mm 0 W/m2
01:31 18.2 °C 15.1 °C 1009.0 hPa Calm     82% 0.0 mm 0 W/m2
01:36 18.0 °C 15.1 °C 1008.7 hPa Calm     83% 0.0 mm 0 W/m2
01:41 18.0 °C 15.1 °C 1008.7 hPa Calm     83% 0.0 mm 0 W/m2
01:46 17.9 °C 14.8 °C 1009.0 hPa Calm     82% 0.0 mm 0 W/m2
01:51 17.8 °C 14.7 °C 1008.4 hPa Calm     82% 0.0 mm 0 W/m2
02:02 17.8 °C 14.9 °C 1008.4 hPa Calm     83% 0.0 mm 0 W/m2
02:07 17.7 °C 14.8 °C 1008.4 hPa Calm     83% 0.0 mm 0 W/m2
02:12 17.7 °C 15.2 °C 1008.4 hPa Calm     85% 0.0 mm 0 W/m2
02:17 17.6 °C 15.1 °C 1008.4 hPa Calm     85% 0.0 mm 0 W/m2
02:37 17.3 °C 14.9 °C 1008.4 hPa Calm     86% 0.0 mm 0 W/m2
02:47 17.1 °C 14.9 °C 1008.0 hPa Calm     87% 0.0 mm 0 W/m2
02:52 17.0 °C 14.8 °C 1008.0 hPa Calm     87% 0.0 mm 0 W/m2
02:57 17.0 °C 14.8 °C 1008.0 hPa Calm     87% 0.0 mm 0 W/m2
03:02 16.8 °C 14.8 °C 1008.0 hPa Calm     88% 0.0 mm 0 W/m2
03:07 16.8 °C 14.8 °C 1008.0 hPa Calm     88% 0.0 mm 0 W/m2
03:12 16.8 °C 15.0 °C 1008.0 hPa Calm     89% 0.0 mm 0 W/m2
03:17 16.8 °C 15.0 °C 1008.0 hPa Calm     89% 0.0 mm 0 W/m2
03:22 16.8 °C 15.0 °C 1007.7 hPa Calm     89% 0.0 mm 0 W/m2
03:27 16.8 °C 15.0 °C 1007.7 hPa Calm     89% 0.0 mm 0 W/m2
03:32 17.0 °C 14.8 °C 1007.7 hPa Calm     87% 0.0 mm 0 W/m2
03:37 16.8 °C 14.8 °C 1007.7 hPa Calm     88% 0.0 mm 0 W/m2
03:42 16.8 °C 14.8 °C 1007.7 hPa Calm     88% 0.0 mm 0 W/m2
03:47 16.8 °C 14.8 °C 1007.7 hPa Calm     88% 0.0 mm 0 W/m2
03:52 16.8 °C 14.8 °C 1007.7 hPa Calm     88% 0.0 mm 0 W/m2
03:57 16.8 °C 15.0 °C 1007.7 hPa Calm     89% 0.0 mm 0 W/m2
04:02 16.7 °C 14.9 °C 1007.7 hPa Calm     89% 0.0 mm 0 W/m2
04:07 16.6 °C 14.9 °C 1007.3 hPa Calm     90% 0.0 mm 0 W/m2
04:12 16.5 °C 14.9 °C 1007.7 hPa Calm     90% 0.0 mm 0 W/m2
04:15 16.5 °C 15.1 °C 1007.3 hPa Calm     91% 0.0 mm 0 W/m2
04:19 16.5 °C 15.1 °C 1007.7 hPa Calm     91% 0.0 mm 0 W/m2
04:24 16.5 °C 15.1 °C 1007.7 hPa Calm     91% 0.0 mm 0 W/m2
04:29 16.5 °C 15.1 °C 1007.7 hPa Calm     91% 0.0 mm 0 W/m2
04:34 16.5 °C 15.2 °C 1008.0 hPa Calm     92% 0.0 mm 0 W/m2
04:39 16.5 °C 15.2 °C 1007.7 hPa Calm     92% 0.0 mm 0 W/m2
04:44 16.5 °C 15.2 °C 1008.0 hPa Calm     92% 0.0 mm 0 W/m2
04:49 16.5 °C 15.2 °C 1007.7 hPa Calm     92% 0.0 mm 0 W/m2
04:54 16.4 °C 15.1 °C 1007.7 hPa Calm     92% 0.0 mm 0 W/m2
04:59 16.4 °C 15.1 °C 1007.7 hPa Calm     92% 0.0 mm 0 W/m2
05:04 16.4 °C 15.1 °C 1008.0 hPa Calm     92% 0.0 mm 0 W/m2
05:09 16.4 °C 15.1 °C 1007.7 hPa Calm     92% 0.0 mm 0 W/m2
05:14 16.4 °C 15.1 °C 1008.0 hPa Calm     92% 0.0 mm 0 W/m2
05:19 16.4 °C 15.1 °C 1008.0 hPa Calm     92% 0.0 mm 0 W/m2
05:24 16.4 °C 15.1 °C 1008.0 hPa Calm   1.1 km/h 92% 0.0 mm 0 W/m2
05:29 16.4 °C 15.1 °C 1007.7 hPa Calm   1.1 km/h 92% 0.0 mm 0 W/m2
05:39 16.4 °C 15.3 °C 1008.0 hPa Calm     93% 0.0 mm 0 W/m2
05:44 16.5 °C 15.4 °C 1008.0 hPa Calm     93% 0.0 mm 0 W/m2
05:49 16.5 °C 15.2 °C 1008.0 hPa Calm     92% 0.0 mm 3 W/m2
05:54 16.4 °C 15.1 °C 1008.0 hPa Calm     92% 0.0 mm 5 W/m2
05:59 16.4 °C 15.1 °C 1008.0 hPa Calm     92% 0.0 mm 10 W/m2
06:04 16.4 °C 15.1 °C 1008.0 hPa Calm     92% 0.0 mm 15 W/m2
06:09 16.3 °C 15.0 °C 1008.0 hPa Calm     92% 0.0 mm 19 W/m2
06:14 16.3 °C 15.0 °C 1008.0 hPa Calm     92% 0.0 mm 22 W/m2
06:19 16.3 °C 15.0 °C 1007.7 hPa Calm     92% 0.0 mm 26 W/m2
06:24 16.4 °C 15.1 °C 1008.0 hPa Calm     92% 0.0 mm 31 W/m2
06:29 16.5 °C 15.2 °C 1008.0 hPa Calm     92% 0.0 mm 61 W/m2
06:34 16.7 °C 15.4 °C 1008.0 hPa Calm     92% 0.0 mm 77 W/m2
06:39 17.3 °C 15.7 °C 1007.7 hPa Calm     90% 0.0 mm 82 W/m2
Northern Hawkes Bay. New Zealand Historic Data
Compliments of Weather Underground - 1 mb